Regional Weather Roundup
Issued by NWS

Home | Current Version | Previous Version | Graphics & Text | Print | Product List | Glossary Off
Versions: 1 2 3 4 5 6 7 8 9 10 11 12 13 14 15 16 17 18 19 20 21 22 23 24 25 26 27 28 29 30 31 32 33 34 35 36 37 38 39 40 41 42 43 44 45 46 47 48 49 50

000
ASUS43 KFSD 300102
RWRSD

WEATHER ROUNDUP FOR SOUTH DAKOTA
NATIONAL WEATHER SERVICE SIOUX FALLS SD
800 PM CDT FRI AUG 29 2014

NOTE: "FAIR" INDICATES FEW OR NO CLOUDS BELOW 12,000 FEET WITH NO
SIGNIFICANT WEATHER AND/OR OBSTRUCTIONS TO VISIBILITY.


SDZ001>005-009-010-012>017-300200-
NORTHWEST AND NORTH CENTRAL SOUTH DAKOTA

CITY           SKY/WX    TMP DP  RH WIND       PRES   REMARKS
BUFFALO          N/A     68  52  56 NE7       29.93S
FAITH            N/A     67  55  65 NE10      29.96R
MOBRIDGE       PTCLDY    68  59  73 N14       29.90R
$$

SDZ012>016-024>037-041>051-057-063-072>074-300200-
SOUTHWEST AND SOUTH CENTRAL SOUTH DAKOTA

CITY           SKY/WX    TMP DP  RH WIND       PRES   REMARKS
RAPID CTY ARPT PTCLDY    72  54  53 NE13      29.98S
PIERRE         PTCLDY    71  59  65 N17       29.89R
CUSTER         PTCLDY    63  50  62 E7        30.10S
ELLSWORTH AFB  PTCLDY    74  55  50 N10       29.98S
PHILIP         CLEAR     73  59  61 N7        29.93S
PINE RIDGE     PTCLDY    72  54  53 CALM      29.99S
WINNER         FAIR      73  59  61 N13       29.90R
$$

SDZ004>011-016>023-039-040-300200-
NORTHEAST SOUTH DAKOTA

CITY           SKY/WX    TMP DP  RH WIND       PRES   REMARKS
ABERDEEN       MOCLDY    67  61  81 N22       29.85R
WATERTOWN      CLOUDY    72  64  76 N7        29.81R
SISSETON         N/A     73  68  84 N5        29.78R
$$

SDZ017-020-022-023-036>040-048>070-300200-
SOUTHEAST SOUTH DAKOTA

CITY           SKY/WX    TMP DP  RH WIND       PRES   REMARKS
SIOUX FALLS    CLOUDY    68  66  93 CALM      29.81R
HURON          CLOUDY    74  64  71 N8        29.81R
CHAMBERLAIN    CLOUDY    75  58  56 N13G21    29.87R
MITCHELL       LGT RAIN  68  65  90 N7        29.82S
YANKTON        CLOUDY    68  66  94 W3        29.80R
$$

ABBREVIATIONS USED IN REMARKS
   TC - TEMPERATURE IN CELSIUS
  WCI - WIND CHILL INDEX
   HX - HEAT INDEX
  VSB - VISIBILITY




USA.gov is the U.S. government's official web portal to all federal, state and local government web resources and services.